Regional Weather Roundup
Issued by NWS

Home | Current Version | Previous Version | Text Only | Print | Product List | Glossary On
Versions: 1 2 3 4 5 6 7 8 9 10 11 12 13 14 15 16 17 18 19 20 21 22 23 24 25 26 27 28 29 30 31 32 33 34 35 36 37 38 39 40 41 42 43 44 45 46 47 48 49 50
000
ASUS43 KLOT 121208
RWRIL

ILLINOIS REGIONAL WEATHER ROUNDUP
NATIONAL WEATHER SERVICE CHICAGO/ROMEOVILLE IL
700 AM CDT MON APR 12 2021

NOTE: "FAIR" INDICATES FEW OR NO CLOUDS BELOW 12,000 FEET WITH NO
SIGNIFICANT WEATHER AND/OR OBSTRUCTIONS TO VISIBILITY.

* THESE STATIONS ARE NOT UNDER NWS QUALITY CONTROL. THEY ALSO MAY NOT
  REPORT WEATHER SUCH AS PRECIPITATION OR FOG.

ILZ001-002-007-009-015-016-024-121300-
NORTHWEST ILLINOIS

CITY           SKY/WX    TMP DP  RH WIND       PRES   REMARKS
MOLINE         CLEAR     45  39  79 W13       29.76R
6HR MIN TEMP:  43; 6HR MAX TEMP:  48;

STERLING*      CLEAR     44  43  96 MISG      29.74R
SAVANNA*       CLEAR     45  41  87 W10       29.74R
$$

ILZ003-004-008-010-011-017-018-121300-
NORTH CENTRAL ILLINOIS

CITY           SKY/WX    TMP DP  RH WIND       PRES   REMARKS
ROCKFORD       PTCLDY    50  43  77 W5        29.72R
6HR MIN TEMP:  50; 6HR MAX TEMP:  52;

FREEPORT*      PTCLDY    46  45  99 W6        29.73R
ROCHELLE*      CLEAR     46  46  98 W12       29.72R
DE KALB*       MOCLDY    48  47  94 W9        29.71R
PERU*            N/A     47  45  93 W5        29.74R
$$

ILZ005-006-012>014-019>023-121300-
NORTHEAST ILLINOIS

CITY           SKY/WX    TMP DP  RH WIND       PRES   REMARKS
CHICAGO-OHARE  CLOUDY    51  47  86 W8        29.68R
6HR MIN TEMP:  51; 6HR MAX TEMP:  52; 6HR PCP: TRACE;

CHICAGO-MIDWAY CLOUDY    51  46  83 W10       29.69R
6HR MIN TEMP:  50; 6HR MAX TEMP:  52; 6HR PCP:  0.01;

AURORA         CLOUDY    50  46  86 W12       29.70R
6HR MIN TEMP:  46; 6HR MAX TEMP:  50;

JOLIET*        CLOUDY    52  48  86 W7        29.72R
WAUKEGAN       CLOUDY    50  48  93 NW3       29.67R FOG
6HR MIN TEMP:  46; 6HR MAX TEMP:  51; 6HR PCP:  0.04;

DUPAGE AIRPORT CLOUDY    50  46  86 W8        29.69R
6HR MIN TEMP:  50; 6HR MAX TEMP:  51;

KANKAKEE*      CLOUDY    49  48  93 W13       29.73R
WHEELING       CLOUDY    52  48  86 W8        29.70R
6HR MIN TEMP:  50; 6HR MAX TEMP:  53; 6HR PCP:  0.01;

MORRIS*        CLOUDY    49  48  93 W8        29.72R
ROMEOVILLE*    CLOUDY    50  48  93 W12       29.71R
LANSING*       CLOUDY    50  48  94 W8        29.70R
$$

LMZ740>746-121300-
SOUTHERN LAKE MICHIGAN

STATION/POSITION SKY/WX   TEMP    WIND        PRES    VSBY  WAVE
                          AIR SEA DIR/SP/G                  HT/PER
                          (F)     (DEG/KT/KT) (MB)    (MI)  (FT/S)
HARRISON CRIB              51     280/ 14/ 15   N/A
CALUMET HARBOR                    270/  5/  8 1004.6R
BURNS HARBOR               49     250/  4/  5 1005.8R
MICHIGAN CITY              47     240/ 11/ 12 1006.0R
$$

ILZ025>027-034>036-040-047-049-050-058-095>099-121300-
WEST-CENTRAL ILLINOIS

CITY           SKY/WX    TMP DP  RH WIND       PRES   REMARKS
QUINCY         CLEAR     44  39  82 NW8       29.83R
GALESBURG*     CLEAR     38  38  99 W10       29.79R WCI  32
MACOMB*        CLEAR     41  38  91 W10       29.81R
JACKSONVILLE*  CLEAR     41  40  97 CALM      29.81R
PITTSFIELD*    CLEAR     44  41  91 W7        29.83R
$$

ILZ028>032-037-038-041>044-048-051>054-059>061-121300-
CENTRAL ILLINOIS

CITY           SKY/WX    TMP DP  RH WIND       PRES   REMARKS
PONTIAC        PTCLDY    47  46  94 W9        29.75R
BLOOMINGTON    CLEAR     45  44  97 W7        29.76S
DECATUR        CLEAR     45  43  93 W6        29.77R
PEORIA         CLEAR     44  40  85 NW5       29.76S
6HR MIN TEMP:  44; 6HR MAX TEMP:  51;

LACON*         CLEAR     43  41  93 CALM      29.75S
LINCOLN*       CLEAR     45  42  90 W3        29.78R
SPRINGFIELD    CLEAR     44  41  89 W7        29.80R
6HR MIN TEMP:  40; 6HR MAX TEMP:  45;

TAYLORVILLE    NOT AVBL
$$

ILZ033-039-045-046-055>057-062-063-121300-
EAST-CENTRAL ILLINOIS

CITY           SKY/WX    TMP DP  RH WIND       PRES   REMARKS
CHAMPAIGN      PTCLDY    44  43  96 W8        29.76R
DANVILLE*      CLOUDY    49  47  93 W7        29.76R
RANTOUL*       MOCLDY    44  44  98 W8        29.75R
MATTOON        CLEAR     45  42  89 NW10      29.77R
PARIS*         CLEAR     44  43  98 W10       29.78R
$$

ILZ079-100>102-121300-
SOUTHWEST ILLINOIS

CITY           SKY/WX    TMP DP  RH WIND       PRES   REMARKS
ALTON          CLEAR     41  41 100 VRB5      29.81R
BELLEVILLE     CLEAR     42  42 100 CALM      29.80R
CAHOKIA*       CLEAR     41  41 100 S3        29.81R
SPARTA*        CLEAR     45  43  93 CALM      29.83R
$$

ILZ064>066-069>071-074>076-080>082-084>086-088>090-092>094-121300-
SOUTH-CENTRAL ILLINOIS

CITY           SKY/WX    TMP DP  RH WIND       PRES   REMARKS
CARBONDALE     CLEAR     43  41  93 CALM      29.81R
6HR MIN TEMP:  41; 6HR MAX TEMP:  48;

CAIRO*         CLEAR     49  41  73 MISG      29.81R
EFFINGHAM*     CLEAR     45  43  93 W6        29.81R
MT. VERNON     CLEAR     41  41 100 SW3       29.82R FOG
CENTRALIA*     CLEAR     44  44 100 CALM      29.80R
SALEM*         CLEAR     45  44  96 W3        29.80R
$$

ILZ067-068-072-073-078-083-087-091-121300-
SOUTHEAST ILLINOIS

CITY           SKY/WX    TMP DP  RH WIND       PRES   REMARKS
FLORA*         CLEAR     46  43  87 W7        29.81R
FAIRFIELD*     CLEAR     42  42 100 CALM      29.79R FOG
HARRISBURG*    CLEAR     42  38  85 CALM      29.82R
ROBINSON*      CLEAR     43  42  97 CALM      29.78R
CARMI*         CLEAR     43  41  93 CALM      29.80R
$$

ABBREVIATIONS USED IN REMARKS
   TC - TEMPERATURE IN CELSIUS
  WCI - WIND CHILL INDEX
   HX - HEAT INDEX
  VSB - VISIBILITY
$$




USA.gov is the U.S. government's official web portal to all federal, state and local government web resources and services.